Orbital Elements at Epoch 2459200.5 (2020-Dec-17.0) TDB
Reference: JPL 26 (heliocentric ecliptic J2000)
Element | Value | Uncertainty (1-sigma) | Units |
e | .231729971036351 | 5.3769e-08 | |
a | 2.325940289120874 | 9.5472e-09 | au |
q | 1.786950213290612 | 1.2785e-07 | au |
i | 27.15389893666181 | 5.3669e-06 | deg |
node | 56.65978699709207 | 7.1639e-06 | deg |
peri | 330.2264730804576 | 1.0466e-05 | deg |
M | 17.91304389502984 | 5.8722e-06 | deg |
tp | 2459136.029185286228 (2020-Oct-13.52918529) | 2.1233e-05 | TDB |
period | 1295.675566529352 3.55 | 7.9774e-06 2.184e-08 | d yr |
n | .2778473325419807 | 1.7107e-09 | deg/d |
Q | 2.864930364951135 | 1.176e-08 | au |
|
| | Orbit Determination Parameters
Additional Information
|